When you browse on this site, cookies collect data to enhance your experience and personalize the content and advertising you see.
Visit our Privacy Policy to learn more. By continuing to use the site, you agree to this use of cookies and data.

Météo par heure à Saurimo

Ce jour, 20 Septembre, Dimanche

Heure Température Précipitation Vent Pression Humidité
00:00 +24°C° 0 mm 1 m/s 669 mmHg 64%
01:00 +24°C° 0 mm 1 m/s 669 mmHg 68%
02:00 +23°C° 0.7 mm 1 m/s 668 mmHg 74%
03:00 +22°C° 0.7 mm 1 m/s 668 mmHg 79%
04:00 +22°C° 0.7 mm 1 m/s 668 mmHg 84%
05:00 +23°C° 0.3 mm 1 m/s 669 mmHg 80%
06:00 +24°C° 0.3 mm 1 m/s 670 mmHg 76%
07:00 +25°C° 0.3 mm 1 m/s 671 mmHg 72%
08:00 +28°C° 0.4 mm 1 m/s 671 mmHg 61%
09:00 +31°C° 0.4 mm 1 m/s 672 mmHg 50%
10:00 +34°C° 0.4 mm 1 m/s 673 mmHg 39%
11:00 +34°C° 0 mm 1 m/s 672 mmHg 35%
12:00 +36°C° 0 mm 2 m/s 671 mmHg 32%
13:00 +36°C° 0 mm 2 m/s 671 mmHg 28%
14:00 +36°C° 0 mm 2 m/s 670 mmHg 29%
15:00 +35°C° 0 mm 2 m/s 669 mmHg 30%
16:00 +34°C° 0 mm 2 m/s 668 mmHg 31%
17:00 +32°C° 0 mm 2 m/s 668 mmHg 36%
18:00 +30°C° 0 mm 1 m/s 669 mmHg 41%
19:00 +28°C° 0 mm 1 m/s 669 mmHg 46%
20:00 +27°C° 0 mm 1 m/s 668 mmHg 49%
21:00 +26°C° 0 mm 1 m/s 668 mmHg 52%
22:00 +25°C° 0 mm 1 m/s 668 mmHg 54%
23:00 +25°C° 0 mm 1 m/s 668 mmHg 57%

Demain, 21 Septembre, Lundi

Heure Température Précipitation Vent Pression Humidité
00:00 +24°C° 0 mm 1 m/s 668 mmHg 60%
01:00 +24°C° 0 mm 1 m/s 667 mmHg 63%
02:00 +23°C° 0 mm 1 m/s 667 mmHg 66%
03:00 +23°C° 0 mm 1 m/s 668 mmHg 69%
04:00 +22°C° 0 mm 1 m/s 668 mmHg 72%
05:00 +23°C° 0 mm 1 m/s 668 mmHg 69%
06:00 +25°C° 0 mm 1 m/s 669 mmHg 65%
07:00 +26°C° 0 mm 1 m/s 670 mmHg 62%
08:00 +28°C° 0 mm 2 m/s 671 mmHg 54%
09:00 +31°C° 0 mm 2 m/s 672 mmHg 46%
10:00 +35°C° 0 mm 2 m/s 672 mmHg 38%
11:00 +35°C° 0 mm 2 m/s 672 mmHg 35%
12:00 +36°C° 0 mm 2 m/s 671 mmHg 32%
13:00 +36°C° 0 mm 1 m/s 670 mmHg 29%
14:00 +35°C° 0 mm 2 m/s 670 mmHg 33%
15:00 +34°C° 0 mm 2 m/s 669 mmHg 37%
16:00 +31°C° 0 mm 2 m/s 669 mmHg 41%
17:00 +30°C° 0 mm 2 m/s 669 mmHg 44%
18:00 +29°C° 0 mm 1 m/s 669 mmHg 48%
19:00 +25°C° 0 mm 0 m/s 670 mmHg 51%
20:00 +27°C° 0 mm 1 m/s 670 mmHg 56%
21:00 +26°C° 0 mm 1 m/s 670 mmHg 60%
22:00 +25°C° 0 mm 2 m/s 670 mmHg 65%
23:00 +24°C° 0 mm 2 m/s 669 mmHg 68%

Après-demain, 22 Septembre, Mardi

Heure Température Précipitation Vent Pression Humidité
00:00 +24°C° 0 mm 2 m/s 669 mmHg 72%
01:00 +23°C° 0 mm 2 m/s 669 mmHg 75%
02:00 +21°C° 0 mm 2 m/s 669 mmHg 77%
03:00 +21°C° 0 mm 2 m/s 669 mmHg 78%
04:00 +22°C° 0 mm 1 m/s 669 mmHg 80%
05:00 +21°C° 0 mm 2 m/s 669 mmHg 77%
06:00 +23°C° 0 mm 2 m/s 670 mmHg 74%
07:00 +23°C° 0 mm 2 m/s 671 mmHg 70%
08:00 +26°C° 0 mm 2 m/s 672 mmHg 61%
09:00 +29°C° 0 mm 2 m/s 672 mmHg 52%
10:00 +32°C° 0 mm 2 m/s 673 mmHg 42%
11:00 +35°C° 0 mm 2 m/s 672 mmHg 37%
12:00 +36°C° 0 mm 1 m/s 672 mmHg 32%
13:00 +39°C° 0 mm 1 m/s 672 mmHg 27%
14:00 +37°C° 0 mm 1 m/s 671 mmHg 28%
15:00 +35°C° 0 mm 1 m/s 670 mmHg 30%
16:00 +35°C° 0 mm 2 m/s 669 mmHg 31%
17:00 +32°C° 0 mm 1 m/s 670 mmHg 36%
18:00 +30°C° 0 mm 1 m/s 670 mmHg 40%
19:00 +28°C° 0 mm 1 m/s 670 mmHg 45%
20:00 +27°C° 0.5 mm 1 m/s 671 mmHg 52%
21:00 +26°C° 0.5 mm 1 m/s 671 mmHg 60%
22:00 +24°C° 0.5 mm 1 m/s 671 mmHg 67%
23:00 +24°C° 0.1 mm 1 m/s 670 mmHg 72%

23 Septembre, Mercredi

Heure Température Précipitation Vent Pression Humidité
00:00 +23°C° 0.1 mm 2 m/s 670 mmHg 77%
01:00 +21°C° 0.1 mm 2 m/s 670 mmHg 81%
02:00 +21°C° 0 mm 2 m/s 669 mmHg 82%
03:00 +21°C° 0 mm 2 m/s 669 mmHg 82%
04:00 +21°C° 0 mm 1 m/s 669 mmHg 83%
05:00 +22°C° 0 mm 1 m/s 670 mmHg 77%
06:00 +23°C° 0 mm 2 m/s 671 mmHg 72%
07:00 +24°C° 0 mm 2 m/s 672 mmHg 67%
08:00 +26°C° 0 mm 2 m/s 672 mmHg 60%
09:00 +28°C° 0 mm 2 m/s 672 mmHg 53%
10:00 +30°C° 0 mm 2 m/s 673 mmHg 46%
11:00 +32°C° 0 mm 1 m/s 672 mmHg 41%
12:00 +34°C° 0 mm 1 m/s 672 mmHg 36%
13:00 +36°C° 0 mm 1 m/s 671 mmHg 31%
14:00 +35°C° 0 mm 1 m/s 670 mmHg 32%
15:00 +34°C° 0 mm 1 m/s 670 mmHg 33%
16:00 +33°C° 0 mm 1 m/s 669 mmHg 33%
17:00 +30°C° 0 mm 1 m/s 669 mmHg 41%
18:00 +28°C° 0 mm 1 m/s 669 mmHg 48%
19:00 +26°C° 0 mm 1 m/s 669 mmHg 55%
20:00 +25°C° 0 mm 2 m/s 669 mmHg 56%
21:00 +25°C° 0 mm 2 m/s 669 mmHg 58%
22:00 +24°C° 0 mm 2 m/s 670 mmHg 60%
23:00 +23°C° 0 mm 2 m/s 669 mmHg 65%

24 Septembre, Jeudi

Heure Température Précipitation Vent Pression Humidité
00:00 +23°C° 0 mm 1 m/s 669 mmHg 70%
01:00 +22°C° 0 mm 1 m/s 669 mmHg 75%
02:00 +22°C° 0 mm 1 m/s 669 mmHg 78%
03:00 +21°C° 0 mm 1 m/s 669 mmHg 81%
04:00 +21°C° 0 mm 1 m/s 669 mmHg 84%
05:00 +22°C° 0 mm 1 m/s 670 mmHg 80%
06:00 +23°C° 0 mm 1 m/s 671 mmHg 76%
07:00 +24°C° 0 mm 2 m/s 671 mmHg 72%
08:00 +27°C° 0 mm 2 m/s 672 mmHg 62%
09:00 +29°C° 0 mm 2 m/s 672 mmHg 52%
10:00 +32°C° 0 mm 2 m/s 673 mmHg 41%
11:00 +35°C° 0 mm 2 m/s 672 mmHg 37%
12:00 +35°C° 0 mm 1 m/s 672 mmHg 33%
13:00 +36°C° 0 mm 1 m/s 671 mmHg 28%
14:00 +35°C° 0 mm 1 m/s 670 mmHg 31%
15:00 +34°C° 0 mm 1 m/s 670 mmHg 33%
16:00 +32°C° 0 mm 1 m/s 669 mmHg 35%
17:00 +31°C° 0 mm 1 m/s 669 mmHg 41%
18:00 +29°C° 0 mm 1 m/s 669 mmHg 46%
19:00 +25°C° 0 mm 0 m/s 670 mmHg 52%
20:00 +27°C° 0.2 mm 1 m/s 670 mmHg 55%
21:00 +26°C° 0.2 mm 1 m/s 670 mmHg 58%
22:00 +26°C° 0.2 mm 2 m/s 670 mmHg 61%
23:00 +25°C° 0 mm 2 m/s 669 mmHg 67%

25 Septembre, Vendredi

Heure Température Précipitation Vent Pression Humidité
00:00 +23°C° 0 mm 2 m/s 669 mmHg 74%
01:00 +22°C° 0 mm 1 m/s 669 mmHg 80%
02:00 +22°C° 0 mm 1 m/s 668 mmHg 81%
03:00 +22°C° 0 mm 1 m/s 668 mmHg 82%
04:00 +21°C° 0 mm 1 m/s 668 mmHg 83%
05:00 +22°C° 0 mm 1 m/s 669 mmHg 79%
06:00 +23°C° 0 mm 2 m/s 670 mmHg 75%
07:00 +24°C° 0 mm 2 m/s 670 mmHg 71%
08:00 +27°C° 0 mm 2 m/s 671 mmHg 61%
09:00 +29°C° 0 mm 2 m/s 672 mmHg 52%
10:00 +32°C° 0 mm 2 m/s 672 mmHg 42%
11:00 +34°C° 0 mm 2 m/s 671 mmHg 39%
12:00 +34°C° 0 mm 1 m/s 671 mmHg 36%
13:00 +35°C° 0 mm 1 m/s 670 mmHg 33%
14:00 +34°C° 0 mm 1 m/s 669 mmHg 33%
15:00 +34°C° 0 mm 1 m/s 669 mmHg 34%
16:00 +33°C° 0 mm 1 m/s 668 mmHg 35%
17:00 +31°C° 0 mm 1 m/s 668 mmHg 40%
18:00 +29°C° 0 mm 1 m/s 668 mmHg 45%
19:00 +27°C° 0 mm 2 m/s 668 mmHg 50%
20:00 +27°C° 0 mm 2 m/s 669 mmHg 53%
21:00 +26°C° 0 mm 1 m/s 669 mmHg 56%
22:00 +26°C° 0 mm 1 m/s 669 mmHg 59%
23:00 +25°C° 0 mm 1 m/s 669 mmHg 63%
Voir plus